Weather History for KSUA - March, 2013

Change the Weather History Date:

Saturday, March 2, 2013

  Actual Average (KVRB) Record (KVRB)
Temperature  
Mean Temperature 56 °F 66 °F  
Max Temperature 62 °F 76 °F 91 °F (2007)
Min Temperature 50 °F 56 °F 31 °F (1968)
Degree Days  
Heating Degree Days 9 3  
Month to date heating degree days 6  
Since 1 July heating degree days 391  
Cooling Degree Days 0 4  
Month to date cooling degree days 8  
Year to date cooling degree days 147  
Growing Degree Days 6 (Base 50)    
Moisture  
Dew Point 35 °F    
Average Humidity 50    
Maximum Humidity 58    
Minimum Humidity 26    
Precipitation  
Precipitation 0.00 in 0.11 in 2.28 in (1947)
Month to date precipitation 0.21  
Year to date precipitation 5.38  
Sea Level Pressure  
Sea Level Pressure 30.02 in    
Wind  
Wind Speed 10 mph (NW)    
Max Wind Speed 21 mph    
Max Gust Speed 22 mph    
Visibility 9 miles    
Events      
T = Trace of Precipitation, MM = Missing Value Source: NWS Daily Summary

Daily Weather History Graph

Daily Weather History Graph

Search for Another Location

Airport or City:

Trip Planner

Search our weather history database for the weather conditions in past years. The results will help you decide how hot, cold, wet, or windy it might be!

Date:

Astronomy

Mar. 02, 2013 Rise Set
Actual Time 6:43 AM EST 6:22 PM EST
Civil Twilight 6:20 AM EST 6:45 PM EST
Nautical Twilight 5:53 AM EST 7:12 PM EST
Astronomical Twilight 5:26 AM EST 7:39 PM EST
Moon 11:26 PM EST (3/2) 9:42 AM EST (3/2)
Length of Visible Light 12h 25m
Length of Day
11h 38m
Waning Gibbous, 74% of the Moon is Illuminated
Mar 2
Waning Gibbous
Mar 4
Last Quarter
Mar 11
New
Mar 19
First Quarter
Mar 27
Full

Hourly Weather History & Observations

Time (EST) Temp. Dew Point Humidity Pressure Visibility Wind Dir Wind Speed Gust Speed Precip Events Conditions
12:15 AM 55.4 °F 37.4 °F 51% 29.99 in 10.0 mi WNW 10.4 mph 21.9 mph N/A   Overcast
12:35 AM 55.4 °F 37.4 °F 51% 30.00 in 10.0 mi NW 13.8 mph 18.4 mph N/A   Overcast
12:55 AM 55.4 °F 35.6 °F 47% 29.99 in 10.0 mi WNW 8.1 mph - N/A   Overcast
1:15 AM 55.4 °F 35.6 °F 47% 29.99 in 10.0 mi WNW 10.4 mph - N/A   Overcast
1:35 AM 55.4 °F 35.6 °F 47% 30.00 in 10.0 mi WNW 11.5 mph 17.3 mph N/A   Overcast
1:55 AM 55.4 °F 35.6 °F 47% 29.99 in 10.0 mi WNW 13.8 mph 20.7 mph N/A   Overcast
2:15 AM 55.4 °F 35.6 °F 47% 29.99 in 10.0 mi NW 11.5 mph 20.7 mph N/A   Overcast
2:35 AM 53.6 °F 37.4 °F 54% 29.98 in 10.0 mi NW 13.8 mph 19.6 mph N/A   Overcast
2:55 AM 53.6 °F 37.4 °F 54% 29.98 in 10.0 mi NW 12.7 mph 19.6 mph N/A   Overcast
3:15 AM 53.6 °F 37.4 °F 54% 29.98 in 10.0 mi NW 11.5 mph 17.3 mph N/A   Overcast
3:35 AM 53.6 °F 39.2 °F 58% 29.99 in 10.0 mi NW 13.8 mph 20.7 mph N/A   Overcast
3:55 AM 53.6 °F 39.2 °F 58% 29.98 in 10.0 mi NW 11.5 mph 20.7 mph N/A   Overcast
4:15 AM 53.6 °F 39.2 °F 58% 29.99 in 10.0 mi NW 11.5 mph 18.4 mph N/A   Overcast
4:35 AM 53.6 °F 37.4 °F 54% 29.99 in 10.0 mi NW 11.5 mph - N/A   Overcast
4:55 AM 53.6 °F 37.4 °F 54% 30.00 in 10.0 mi NW 11.5 mph 17.3 mph N/A   Overcast
5:15 AM 53.6 °F 37.4 °F 54% 30.01 in 10.0 mi NNW 12.7 mph 18.4 mph N/A   Overcast
6:47 AM 53.6 °F 30.2 °F 41% 30.04 in 7.0 mi NNW 10.4 mph 18.4 mph N/A   Mostly Cloudy
7:47 AM 51.8 °F 32.0 °F 47% 30.04 in 7.0 mi North 6.9 mph - N/A   Mostly Cloudy
8:55 AM 55.4 °F 35.6 °F 47% 30.05 in 7.0 mi NNW 8.1 mph - N/A   Mostly Cloudy
9:47 AM 57.2 °F 37.4 °F 48% 30.04 in 7.0 mi NNW 6.9 mph - N/A   Scattered Clouds
10:55 AM 59.0 °F 24.8 °F 27% 30.04 in 7.0 mi NW 8.1 mph - N/A   Mostly Cloudy
11:47 AM 62.6 °F 26.6 °F 26% 30.03 in 7.0 mi NNW 12.7 mph 18.4 mph N/A   Mostly Cloudy
1:47 PM 62.6 °F 30.2 °F 30% 30.00 in 10.0 mi WNW 20.7 mph - N/A   Mostly Cloudy
3:47 PM 59.0 °F 35.6 °F 42% 29.99 in 7.0 mi WNW 13.8 mph - N/A   Mostly Cloudy
4:47 PM - - N/A% 29.99 in 7.0 mi WNW 13.8 mph - N/A   Mostly Cloudy
5:47 PM 57.2 °F 32.0 °F 38% 30.00 in 7.0 mi WNW 11.5 mph - N/A   Mostly Cloudy
6:47 PM 55.4 °F 32.0 °F 41% 30.01 in 7.0 mi WNW 11.5 mph - N/A   Scattered Clouds
7:15 PM 53.6 °F 33.8 °F 47% 30.02 in 10.0 mi West 8.1 mph - N/A   Clear
7:55 PM 53.6 °F 35.6 °F 51% 30.03 in 10.0 mi West 8.1 mph - N/A   Clear
8:15 PM 53.6 °F 35.6 °F 51% 30.03 in 10.0 mi West 5.8 mph - N/A   Clear
8:35 PM 53.6 °F 35.6 °F 51% 30.04 in 10.0 mi West 5.8 mph - N/A   Clear
8:55 PM 51.8 °F 35.6 °F 54% 30.05 in 10.0 mi WNW 5.8 mph - N/A   Clear
9:15 PM 51.8 °F 35.6 °F 54% 30.05 in 10.0 mi WNW 6.9 mph - N/A   Clear
9:35 PM 51.8 °F 35.6 °F 54% 30.05 in 10.0 mi WNW 5.8 mph - N/A   Clear
9:55 PM 50.0 °F 35.6 °F 58% 30.06 in 10.0 mi WNW 3.5 mph - N/A   Clear
10:15 PM 50.0 °F 35.6 °F 58% 30.05 in 10.0 mi WNW 5.8 mph - N/A   Clear
10:35 PM 50.0 °F 35.6 °F 58% 30.05 in 10.0 mi NW 6.9 mph - N/A   Clear
10:55 PM 50.0 °F 35.6 °F 58% 30.05 in 10.0 mi WNW 4.6 mph - N/A   Clear
11:15 PM 50.0 °F 35.6 °F 58% 30.05 in 10.0 mi WNW 4.6 mph - N/A   Clear
11:35 PM 50.0 °F 35.6 °F 58% 30.04 in 10.0 mi NW 4.6 mph - N/A   Clear
11:55 PM 50.0 °F 35.6 °F 58% 30.04 in 10.0 mi Calm Calm - N/A   Clear